Location: Newark
(36.9100°N, 76.7100°W)
Time: 13:56:08
(UTC+00:00)

OTV 5 (USA 277) - Pass Details

Date: 19 October 2019
Orbit: 310 x 324 km, 54.5° (Epoch: 17 October)

Event Time Altitude Azimuth Distance (km) Brightness Sun altitude
Exits shadow 09:23:10 11° 30° (NNE) 1,185 ? -23.6°
Maximum altitude 09:23:14 11° 31° (NNE) 1,185 ? -23.6°
Drops below altitude 10° 09:24:03 10° 49° (NE) 1,235 ? -23.5°
Sets 09:27:11 0° 89° (E) 2,059 ? -22.8°
